Location: Campolattaro
(41.2833°N, 14.7333°E)
Time: 10:12:35
(UTC+00:00)

USA 234 - Pass Details

Date: 19 May 2025
Orbit: 1097 x 1111 km, 123.0° (Epoch: 19 June)

Event Time Altitude Azimuth Distance (km) Brightness Sun altitude
Rises 19:05:06 0° 49° (NE) 3,927 6.0 -8.5°
Reaches altitude 10° 19:07:38 10° 53° (NE) 2,968 5.4 -8.9°
Maximum altitude 19:14:07 60° 133° (SE) 1,248 3.3 -9.9°
Drops below altitude 10° 19:20:34 10° 213° (SSW) 2,963 5.5 -10.8°
Sets 19:23:06 0° 217° (SW) 3,920 6.1 -11.2°
